Location: Ashtead
(51.3000°N, 0.3000°W)
Time: 13:14:49
(UTC+00:00)

Cosmos 468 - Pass Details

Date: 26 September 2023
Orbit: 761 x 781 km, 74.0° (Epoch: 28 November)

Event Time Altitude Azimuth Distance (km) Brightness Sun altitude
Rises 04:39:42 0° 333° (NNW) 3,262 7.6 -12.2°
Reaches altitude 10° 04:42:07 10° 330° (NNW) 2,327 6.8 -11.8°
Maximum altitude 04:47:20 62° 251° (WSW) 863 4.5 -11.0°
Drops below altitude 10° 04:52:28 10° 171° (S) 2,298 7.0 -10.3°
Sets 04:54:50 0° 168° (SSE) 3,217 7.7 -9.9°
